Regional Weather Roundup
Issued by NWS Charleston, WV

Home | Current Version | Previous Version | Text Only | Print | Product List | Glossary Off
Versions: 1 2 3 4 5 6 7 8 9 10 11 12 13 14 15 16 17 18 19 20 21 22 23 24 25 26 27

000
ASUS41 KRLX 240410
RWRRLX
West Virginia Regional Weather Roundup
National Weather Service Charleston WV
1200 AM EDT WED MAY 24 2017

Note: "fair" indicates few or no clouds below 12,000 feet with no
significant weather and/or obstructions to visibility.

WVZ003-240500-
Northern Panhandle of West Virginia

CITY           SKY/WX    TMP DP  RH WIND       PRES   REMARKS
WHEELING       CLOUDY    59  53  80 SE7       29.71F
$$

WVZ009-240500-
Northwest West Virginia

CITY           SKY/WX    TMP DP  RH WIND       PRES   REMARKS
PARKERSBURG    CLOUDY    61  60  97 CALM      29.71F
$$

WVZ006-240500-
Western West Virginia

CITY           SKY/WX    TMP DP  RH WIND       PRES   REMARKS
HUNTINGTON     RAIN      62  60  93 E6        29.66F FOG
$$

WVZ015-240500-
West Central West Virginia

CITY           SKY/WX    TMP DP  RH WIND       PRES   REMARKS
CHARLESTON     MOCLDY    60  57  89 NE5       29.67F
$$

WVZ022-031-240500-
North Central West Virginia

CITY           SKY/WX    TMP DP  RH WIND       PRES   REMARKS
CLARKSBURG     CLOUDY    57  54  89 E3        29.69F
MORGANTOWN     CLOUDY    59  54  83 VRB3      29.72F
$$

WVZ025-035-042-045-240500-
Southern West Virginia

CITY           SKY/WX    TMP DP  RH WIND       PRES   REMARKS
BECKLEY        CLOUDY    55  52  89 SE8       29.72F
LOGAN          LGT RAIN  59  57  94 CALM      29.67F
BLUEFIELD      CLOUDY    54  52  93 E8        29.74F
LEWISBURG      DRIZZLE   54  53  94 CALM      29.75R
$$

WVZ047-240500-
Northern Mountains of West Virginia

CITY           SKY/WX    TMP DP  RH WIND       PRES   REMARKS
ELKINS         LGT RAIN  55  53  93 W8        29.72F
$$

WVZ052-240500-
Eastern Panhandle of West Virginia

CITY           SKY/WX    TMP DP  RH WIND       PRES   REMARKS
MARTINSBURG    LGT RAIN  57  56  96 CALM      29.77F FOG
PETERSBURG     RAIN      58  57  98 CALM      29.79F
$$




USA.gov is the U.S. government's official web portal to all federal, state and local government web resources and services.